Regional Weather Roundup
Issued by NWS Lake Charles, LA

Home | Current Version | Previous Version | Text Only | Print | Product List | Glossary On
Versions: 1 2 3 4 5 6 7 8 9 10 11 12 13 14 15 16 17 18 19 20 21 22 23 24 25 26 27 28 29 30 31 32 33 34 35 36 37 38 39 40 41 42 43 44 45 46 47
000
ASUS44 KLCH 280110
RWRLCH
RWRLCH
REGIONAL WEATHER ROUNDUP
NATIONAL WEATHER SERVICE LAKE CHARLES LA
800 PM CDT MON JUL 27 2015

Note: "fair" indicates few or no clouds below 12,000 feet with no
significant weather and/or obstructions to visibility.


ACROSS SOUTHEAST TEXAS

CITY           SKY/WX    TMP DP  RH WIND       PRES   REMARKS
BEAUMONT       PTCLDY    85  74  69 S8        29.91R
BEAUMONT CITY    N/A     85  73  67 S7        29.91S
ORANGE         PTCLDY    86  71  60 S6        29.92S
JASPER         CLEAR     91  76  61 S7        29.93S HX 102
$$

ACROSS CENTRAL LOUISIANA

CITY           SKY/WX    TMP DP  RH WIND       PRES   REMARKS
LEESVILLE      CLEAR     87  74  64 S7        29.90R
FULLERTON        N/A     87  76  69 CALM      29.89R
ALEXANDRIA INT CLEAR     89  73  59 SE3       29.88S
ESLER FIELD    CLEAR     89  74  60 CALM      29.91R
DERIDDER         N/A     87  73  63 CALM      29.93S
OAKDALE        CLEAR     85  76  74 CALM      29.91S
OPELOUSAS        N/A     86  75  69 S6        29.91S
$$

ACROSS SOUTHWEST AND SOUTH CENTRAL LOUISIANA

CITY           SKY/WX    TMP DP  RH WIND       PRES   REMARKS
SULPHUR        CLEAR     87  73  63 S6        29.92S
LAKE CHARLES   CLEAR     86  75  69 S5        29.91R
CHENNAULT INT  NOT AVBL
CAMERON PHI    CLEAR     86  77  74 SW9       29.95R
DEQUINCY         N/A     84  77  78 CALM      29.91S
JENNINGS         N/A     87  76  69 S3        29.91S
LAFAYETTE      PTCLDY    85  75  72 S6        29.93R
NEW IBERIA     PTCLDY    83  75  77 CALM      29.94R
ABBEVILLE        N/A     80  78  94 CALM      29.93S
PATTERSON      CLEAR     82  75  78 S5        29.95S
SALT POINT       N/A     86  77  74 CALM      29.92R
$$

SELECTED SITES ACROSS THE REGION

CITY           SKY/WX    TMP DP  RH WIND       PRES   REMARKS
HOUSTON BUSH   PTCLDY    90  71  53 S6        29.89R
HOUSTON HOBBY  PTCLDY    87  74  64 S9        29.89R
GALVESTON      CLEAR     87  75  67 S12       29.92R
COLLEGE STAT   CLEAR     92  68  45 SE8       29.87R
CONROE         PTCLDY    89  72  56 SE9       29.89R
HUNTSVILLE     CLEAR     94  69  44 S6        29.89R
LUFKIN         PTCLDY    89  71  55 E7        29.89R
SHREVEPORT     PTCLDY    92  73  53 S6        29.87S HX 100
MONROE         CLEAR     86  81  85 CALM      29.91R HX 102
NATCHEZ MS     PTCLDY    84  75  74 NE7       29.94S
BATON ROUGE    PTCLDY    85  72  65 MISG      29.93R
N.O. INTL ARPT MOCLDY    87  72  60 S8        29.94R
SLIDELL        CLEAR     86  74  67 S3        29.93S
$$

MARINE REPORTS

STATION/POSITION TIME  TEMP    WIND        PRES    VSBY  WAVE
                       AIR SEA DIR/SP/G                  HT/PER
                 (UTC) (F)     (DEG/KT/KT) (MB)    (MI)  (FT/S)
BUOY 30 S HIGH I 0050   87 88  160/ 12/ 12 1012.4S         2/ 6
SEA RIM ST PARK  0100   85     180/  9/ 10 1013.5R
PORT ARTHUR      0000      89  180/  6/ 10 1012.8F
SABINE PASS N    0000   87 89  210/ 10/ 13 1012.9F
TEXAS POINT      NOT AVBL
CALCASIEU PASS   0000   86 90  220/  9/ 11 1012.0F
LK CHARLES BEACH 0000   89 90                N/A
MARSH ISLAND     0000   90     240/  2/  7   N/A           0
FRESH WATER LOCK 0000   87 88  200/  7/  9 1013.1F
AMERADA PASS     NOT AVBL
$$



USA.gov is the U.S. government's official web portal to all federal, state and local government web resources and services.